"Pseudo-MPEC" for P12miqm

Created 2026 Mar 12 18:35:18 UT using Find_Orb

Click here for an explanation of pseudo-MPECs

 
 Astrometry: 
     P12miqm*0C2026 02 27.59618015 09 31.981-12 45 38.95   ~2S15 20.60GVNEOCPF51
     P12miqm 0C2026 02 27.61075415 09 27.483-12 47 54.25   ~2S15 20.69GVNEOCPF51
     P12miqm 0C2026 02 27.62535715 09 22.986-12 50 09.38   ~2S15 20.66GVNEOCPF51
     P12miqm 0C2026 02 27.64012515 09 18.453-12 52 25.24   ~2S15 20.85GVNEOCPF51

Station data:
(F51) Pan-STARRS 1, Haleakala  (N20.707234 W156.255910)  US/Hawaii.
   Observers J. Herman, T. Lowe, P. Minguez, A. Schultz, I. Smith. Measurers
   K. Chambers, T. de Boer, J. Fairlamb, H. Gao, M. Huber, C.-C. Lin, E.
   Magnier, Y. Ramanjooloo, R. Wainscoat, R. Weryk. 1.8-m Ritchey-Chrétien +
   CCD.

Orbital elements:  P12miqm
   Perihelion 2026 Jun 24.784557 +/- 76.2 TT = 18:49:45.6 (JD 2461216.284557)
Epoch 2026 Feb 28.0 TT = JDT 2461099.5   Earth MOID: 0.0810   Me: 0.0942
M 191.202775338 +/- 130             (J2000 ecliptic)             AutoNEOCP
n   1.445372826 +/- 0.636           Peri.  353.871414 +/- 90
a   0.774728368 +/- 0.227           Node   349.294499 +/- 4.5
e   0.39205799 +/- 0.224            Incl.   55.042661 +/- 24
P   0.682/249.066d         H 22.17  G  0.15   U 12.4  SR
q 0.470989920 +/- 0.232    Q 1.078466815 +/- 3.19
From 4 observations 2026 Feb. 27 (63.3 min); mean residual 0".29
Residuals in arcseconds: 
260227 F51  .17+  .36+    260227 F51  .18-  .43-    
260227 F51  .17-  .32-    260227 F51  .17+  .39+    

Ephemerides (geocentric):
Date (UTC) HH   RA             Dec           delta  r     elong  mag " sig PA
---- --------  ------------   ------------  ------ ------ -----  --- --------
2026 03 12 19  10 45 27.047   -62 52 02.80  .14055 1.0574 113.4 20.2  17d  97
2026 03 12 20  10 43 25.460   -62 55 33.87  .14075 1.0573 113.3 20.2  17d  97
2026 03 12 21  10 41 23.753   -62 58 57.67  .14096 1.0572 113.2 20.2  17d  97
2026 03 12 22  10 39 21.943   -63 02 14.21  .14117 1.0571 113.1 20.2  17d  97
2026 03 12 23  10 37 20.052   -63 05 23.52  .14138 1.0570 113.0 20.2  17d  97
2026 03 13 00  10 35 18.098   -63 08 25.62  .14159 1.0570 112.9 20.2  17d  97
2026 03 13 01  10 33 16.101   -63 11 20.51  .14181 1.0569 112.8 20.2  17d  97
2026 03 13 02  10 31 14.080   -63 14 08.23  .14203 1.0568 112.7 20.2  17d  97
2026 03 13 03  10 29 12.055   -63 16 48.79  .14225 1.0567 112.6 20.2  17d  97
2026 03 13 04  10 27 10.046   -63 19 22.23  .14247 1.0566 112.5 20.2  17d  97
2026 03 13 05  10 25 08.072   -63 21 48.57  .14269 1.0565 112.4 20.2  17d  98
2026 03 13 06  10 23 06.153   -63 24 07.84  .14292 1.0564 112.3 20.2  17d  98
2026 03 13 07  10 21 04.308   -63 26 20.08  .14315 1.0563 112.2 20.2  17d  98
2026 03 13 08  10 19 02.557   -63 28 25.32  .14338 1.0563 112.1 20.2  17d  98
2026 03 13 09  10 17 00.919   -63 30 23.59  .14362 1.0562 112.0 20.2  17d  98
2026 03 13 10  10 14 59.413   -63 32 14.94  .14385 1.0561 111.9 20.3  17d  98
2026 03 13 11  10 12 58.059   -63 33 59.41  .14409 1.0560 111.8 20.3  17d  98
2026 03 13 12  10 10 56.875   -63 35 37.04  .14433 1.0559 111.7 20.3  17d  98
2026 03 13 13  10 08 55.880   -63 37 07.87  .14458 1.0558 111.6 20.3  17d  98
2026 03 13 14  10 06 55.093   -63 38 31.95  .14482 1.0557 111.5 20.3  17d  98
2026 03 13 15  10 04 54.532   -63 39 49.33  .14507 1.0556 111.4 20.3  17d  98
2026 03 13 16  10 02 54.216   -63 41 00.05  .14532 1.0556 111.3 20.3  17d  98
2026 03 13 17  10 00 54.162   -63 42 04.18  .14557 1.0555 111.2 20.3  17d  98
2026 03 13 18  09 58 54.389   -63 43 01.76  .14582 1.0554 111.1 20.3  17d  98
2026 03 13 19  09 56 54.913   -63 43 52.84  .14608 1.0553 111.0 20.3  17d  98
2026 03 13 20  09 54 55.752   -63 44 37.49  .14634 1.0552 110.9 20.3  17d  98
2026 03 13 21  09 52 56.923   -63 45 15.76  .14660 1.0551 110.8 20.3  17d  98
2026 03 13 22  09 50 58.442   -63 45 47.71  .14686 1.0550 110.7 20.3  17d  98
2026 03 13 23  09 49 00.326   -63 46 13.40  .14712 1.0549 110.6 20.3  17d  98
2026 03 14 00  09 47 02.592   -63 46 32.89  .14739 1.0548 110.5 20.3  17d  98
2026 03 14 01  09 45 05.253   -63 46 46.25  .14766 1.0547 110.4 20.3  17d  98
2026 03 14 02  09 43 08.327   -63 46 53.54  .14793 1.0547 110.3 20.3  17d  98
2026 03 14 03  09 41 11.828   -63 46 54.83  .14820 1.0546 110.2 20.4  17d  98
2026 03 14 04  09 39 15.770   -63 46 50.17  .14848 1.0545 110.1 20.4  17d  98
2026 03 14 05  09 37 20.168   -63 46 39.65  .14875 1.0544 110.0 20.4  17d  98
2026 03 14 06  09 35 25.036   -63 46 23.32  .14903 1.0543 109.9 20.4  17d  98
2026 03 14 07  09 33 30.387   -63 46 01.27  .14931 1.0542 109.8 20.4  17d  98
2026 03 14 08  09 31 36.235   -63 45 33.55  .14960 1.0541 109.7 20.4  17d  98
2026 03 14 09  09 29 42.592   -63 45 00.24  .14988 1.0540 109.6 20.4  17d  98
2026 03 14 10  09 27 49.470   -63 44 21.41  .15017 1.0539 109.5 20.4  17d  98
2026 03 14 11  09 25 56.882   -63 43 37.13  .15046 1.0538 109.4 20.4  17d  98
2026 03 14 12  09 24 04.839   -63 42 47.48  .15075 1.0537 109.3 20.4  17d  98
2026 03 14 13  09 22 13.353   -63 41 52.53  .15104 1.0536 109.2 20.4  17d  98
2026 03 14 14  09 20 22.433   -63 40 52.36  .15133 1.0535 109.1 20.4  18d  98
2026 03 14 15  09 18 32.091   -63 39 47.03  .15163 1.0535 109.0 20.4  18d  98
2026 03 14 16  09 16 42.335   -63 38 36.63  .15193 1.0534 108.9 20.4  18d  98
2026 03 14 17  09 14 53.177   -63 37 21.23  .15223 1.0533 108.8 20.4  18d  98
2026 03 14 18  09 13 04.624   -63 36 00.91  .15253 1.0532 108.7 20.5  18d  98